STARLINK-34535, 64698

Orbit data source: Space-Track

STARLINK-34535, 64698 is a payload satellite owned by SpaceX/Seattle (US) in LEO that was launched on Sat, 28 Jun 2025 UTC via an FALCON 9 launch vehicle from the Air Force Western Test Range (AFWTR). Payload-class satellites include a variety of spacecraft equipped with specific instruments for various scientific and technological missions. These include communications satellites like Starlink; space stations such as the ISS; scientific satellites like the Hubble; Earth observation satellites from companies like Planet Labs, Umbra, and HawkEye 360; GPS; miniature CubeSats for education and research; and military/defense satellites.

Not visible in the next 10 days
Identifier
64698, 2025-142C
Orbit
LEO
Last TLE update
7 hours ago
Origin
Manufacturer
SpaceX/Seattle
Mission
Operational spacecraft
Bus & Motor
STARLINK V2MO, Unknown motor
Mass
575 kg wet, ~530 kg dry
Launch date (UTC)
2025-06-28 (1 week ago)
Launch vehicle
FALCON 9
Launch site
Air Force Western Test Range (AFWTR)
Object type
Payload
Rocket body
Debris
Shape & HBR
Unknown
Radar Cross Section
RCS unknown

Expand to show TLE details & history

TLE from 7 hours ago
0 STARLINK-34535
1 64698U 25142C   25186.91668981 -.01070955  00000-0 -46135-2 0  9997
2 64698  69.9951 230.3852 0003704 274.5276 147.4408 15.87197986  2139
Epoch: 2025-07-05T22:00Z
TLE epoch observation values (Epoch: 2025-07-05T22:00:01.999Z)
Latitude
56.17986°
Longitude
8.93707°
Altitude
321.01 km
Speed
7.72 km/s
True Right ascension
17h 32m 22s
True Declination
56° 00' 37"
Sunlit
Object was in daylight at epoch
Visualization orbit readout
Latitude
-40.95374°
Longitude
-42.93728°
Altitude
325.537 km
Speed
7.713 km/s
Apparent Right ascension
09h 44m 11s
Apparent Declination
-65° 42' 39"
Sunlit
Object is in full shadow
Visualization observer readout
Local Sidereal Time
17:04:28
Azimuth
212.413° SW
Elevation
-43.879°
Doppler factor
1
Orbital elements
Apogee altitude
310.488 km
Perigee altitude
305.534 km
Semi-major axis
6,686.148 km
Eccentricity
0.00037
Inclination
69.9951°
RAAN
230.3852°
Arg. of periapsis
274.5276°
True anomaly
Unknown
Mean anomaly
147.4408°
Eccentric anomaly
Unknown
Mean motion
3.9699 °/min
Orbital period
90.68 mins
BSTAR
-0.0046135
Loading maneuver chart data...
Loading SW <> Apogee altitude chart data...
Loading historical data...
Loading historical data...
Loading historical data...
Loading historical data...
Loading historical data...
Loading historical data...
Loading historical data...

STARLINK-34535 Visibility

Observer location: undefined°, undefined°

STARLINK-34535 is likely not visible in the next few days
Span
Click to sort rows by Start time (UTC) header in descending order
Start Az.
Max El. time (UTC)
Max El. Az.
Max El.
End time (UTC)
End Az.
|